Weather History for Gillette, WY

Change the Weather History Date:

Sunday, March 31, 2013

  Actual Average Record
Temperature  
Mean Temperature 40 °F 38 °F  
Max Temperature 60 °F 51 °F 79 °F (2004)
Min Temperature 20 °F 25 °F -2 °F (1936)
Degree Days  
Heating Degree Days 25 27  
Month to date heating degree days 964 938  
Since 1 July heating degree days 6087 6347  
Cooling Degree Days 0 0  
Month to date cooling degree days 0 0  
Year to date cooling degree days 0 0  
Moisture  
Dew Point 25 °F    
Average Humidity 60    
Maximum Humidity 92    
Minimum Humidity 28    
Precipitation  
Precipitation 0.00 in 0.03 in 0.40 in (1927)
Month to date precipitation 0.28 0.96  
Year to date precipitation 1.41 1.74  
Sea Level Pressure  
Sea Level Pressure 30.05 in    
Wind  
Wind Speed 15 mph (NW)    
Max Wind Speed 35 mph    
Max Gust Speed 39 mph    
Visibility 10 miles    
Events      
T = Trace of Precipitation, MM = Missing Value Source: NWS Daily Summary

Daily Weather History Graph

Daily Weather History Graph

Search for Another Location

Airport:

Trip Planner

Search our weather history database for the weather conditions in past years. The results will help you decide how hot, cold, wet, or windy it might be!

Date:

Astronomy

Mar. 31, 2013 Rise Set
Actual Time 6:44 AM MDT 7:28 PM MDT
Civil Twilight 6:15 AM MDT 7:57 PM MDT
Nautical Twilight 5:40 AM MDT 8:32 PM MDT
Astronomical Twilight 5:04 AM MDT 9:09 PM MDT
Moon No Moon Rise 9:25 AM MDT (3/31)
Length of Visible Light 13h 42m
Length of Day
12h 44m
Waning Gibbous, 77% of the Moon is Illuminated
Mar 31
Waning Gibbous
Apr 2
Last Quarter
Apr 10
New
Apr 18
First Quarter
Apr 25
Full

Hourly Weather History & Observations

Time (MDT) Temp. Windchill Dew Point Humidity Pressure Visibility Wind Dir Wind Speed Gust Speed Precip Events Conditions
12:53 AM 25.0 °F 15.5 °F 23.0 °F 92% 30.14 in 10.0 mi South 9.2 mph - N/A   Clear
1:53 AM 30.0 °F 21.1 °F 27.0 °F 88% 30.11 in 10.0 mi South 10.4 mph - N/A   Clear
2:53 AM 30.0 °F - 26.1 °F 85% 30.08 in 10.0 mi Calm Calm - N/A   Clear
3:53 AM 30.9 °F 20.2 °F 26.1 °F 82% 30.03 in 10.0 mi South 15.0 mph - N/A   Clear
4:53 AM 36.0 °F 25.6 °F 28.0 °F 73% 29.99 in 10.0 mi South 18.4 mph - N/A   Clear
5:53 AM 35.1 °F 25.5 °F 27.0 °F 72% 29.97 in 10.0 mi South 15.0 mph - N/A   Clear
6:53 AM 35.1 °F 24.5 °F 25.0 °F 67% 29.97 in 10.0 mi SSW 18.4 mph - N/A   Clear
7:53 AM 42.1 °F 35.7 °F 27.0 °F 55% 29.98 in 10.0 mi WSW 11.5 mph - N/A   Clear
8:53 AM 46.9 °F - 27.0 °F 46% 29.99 in 10.0 mi West 13.8 mph - N/A   Clear
9:53 AM 53.1 °F - 25.0 °F 34% 30.00 in 10.0 mi WNW 18.4 mph - N/A   Clear
10:53 AM 53.1 °F - 25.0 °F 34% 30.00 in 10.0 mi NW 19.6 mph 28.8 mph N/A   Clear
11:53 AM 55.9 °F - 25.0 °F 30% 30.01 in 10.0 mi NW 23.0 mph 31.1 mph N/A   Clear
12:53 PM 55.9 °F - 25.0 °F 30% 30.00 in 10.0 mi NNW 20.7 mph 29.9 mph N/A   Overcast
1:53 PM 57.9 °F - 24.1 °F 27% 29.99 in 10.0 mi NW 26.5 mph 38.0 mph N/A   Mostly Cloudy
2:53 PM 55.9 °F - 27.0 °F 33% 30.01 in 10.0 mi North 25.3 mph 29.9 mph N/A   Overcast
3:53 PM 54.0 °F - 26.1 °F 34% 30.02 in 10.0 mi NNW 27.6 mph 35.7 mph N/A   Unknown
4:53 PM 54.0 °F - 25.0 °F 33% 30.01 in 10.0 mi North 20.7 mph - N/A   Mostly Cloudy
5:53 PM 50.0 °F - 26.1 °F 39% 30.06 in 10.0 mi North 18.4 mph 24.2 mph N/A   Clear
6:53 PM 44.1 °F 36.8 °F 24.1 °F 45% 30.09 in 10.0 mi NNE 16.1 mph - N/A   Clear
7:53 PM 37.9 °F 31.5 °F 23.0 °F 55% 30.12 in 10.0 mi North 9.2 mph - N/A   Clear
8:53 PM 36.0 °F 28.0 °F 24.1 °F 62% 30.15 in 10.0 mi NE 11.5 mph 17.3 mph N/A   Clear
9:53 PM 33.1 °F 24.9 °F 25.0 °F 72% 30.16 in 10.0 mi NE 10.4 mph - N/A   Clear
10:53 PM 28.0 °F - 23.0 °F 81% 30.18 in 10.0 mi Calm Calm - N/A   Scattered Clouds
11:53 PM 23.0 °F - 19.9 °F 88% 30.18 in 10.0 mi Calm Calm - N/A   Clear